This is the latest recevied weather packets stored in our database for station/object WE0DX-1. If no packets are shown the sender has not sent any weather packets the latest 10 day(s).
| Time | Temp. | Humidity | Pressure | Rain* | Wind** | Luminosity | Snow |
|---|---|---|---|---|---|---|---|
| 1777730857 | 11.67° C | 52% | 1021.1 hPa | 0 mm | - | 305 W/m² | - |
| 1777730250 | 11.11° C | 55% | 1021.2 hPa | 0 mm | - | 275 W/m² | - |
| 1777729947 | 10.56° C | 55% | 1021.2 hPa | 0 mm | - | 154 W/m² | - |
| 1777729643 | 10° C | 58% | 1021.3 hPa | 0 mm | - | 197 W/m² | - |
| 1777729036 | 9.44° C | 60% | 1021.2 hPa | 0 mm | - | 114 W/m² | - |
| 1777728733 | 8.89° C | 62% | 1021.2 hPa | 0 mm | - | 108 W/m² | - |
| 1777728430 | 8.89° C | 62% | 1021 hPa | 0 mm | - | 50 W/m² | - |
| 1777728127 | 8.33° C | 63% | 1021 hPa | 0 mm | - | 104 W/m² | - |
| 1777727824 | 7.78° C | 63% | 1021 hPa | 0 mm | - | 73 W/m² | - |
| 1777727521 | 7.78° C | 64% | 1021 hPa | 0 mm | - | 52 W/m² | - |
| 1777727218 | 7.78° C | 65% | 1020.8 hPa | 0 mm | - | 60 W/m² | - |
| 1777726916 | 7.22° C | 66% | 1020.8 hPa | 0 mm | - | 55 W/m² | - |
| 1777726612 | 7.22° C | 68% | 1020.9 hPa | 0 mm | - | 42 W/m² | - |
| 1777725402 | 6.11° C | 69% | 1020.7 hPa | 0 mm | - | 35 W/m² | - |
| 1777725099 | 6.11° C | 69% | 1020.7 hPa | 0 mm | - | 33 W/m² | - |
| 1777724795 | 5.56° C | 70% | 1020.6 hPa | 0 mm | - | 44 W/m² | - |
| 1777724492 | 5.56° C | 70% | 1020.7 hPa | 0 mm | - | 40 W/m² | - |
| 1777724190 | 5.56° C | 71% | 1020.6 hPa | 0 mm | - | 35 W/m² | - |
| 1777723887 | 5° C | 71% | 1020.6 hPa | 0 mm | - | 31 W/m² | - |
| 1777723280 | 5° C | 73% | 1020.5 hPa | 0 mm | - | 22 W/m² | - |
| 1777722674 | 4.44° C | 75% | 1020.2 hPa | 0 mm | - | 15 W/m² | - |
| 1777722068 | 3.89° C | 75% | 1020.2 hPa | 0 mm | - | 8 W/m² | - |
| 1777721765 | 3.89° C | 75% | 1020 hPa | 0 mm | - | 5 W/m² | - |
| 1777721463 | 3.89° C | 75% | 1020.1 hPa | 0 mm | - | 3 W/m² | - |
| 1777721160 | 3.89° C | 74% | 1019.9 hPa | 0 mm | - | 2 W/m² | - |
* Rain latest hour (hover to see other rain measurements)
** Current wind speed in m/s (hover to see current wind gust speed)